Theta_e
338 337 335 332 329 323 320 319 318 317 318 319 319 319 319 319 319 319 318 317 317 315 314 314 314 314 314 313 312 313 317 316
337 336 334 333 330 322 319 318 319 319 320 321 321 321 320 320 321 319 318 318 317 316 315 315 312 311 312 311 313 316 317 317
337 334 333 331 328 325 320 319 322 323 322 323 325 326 326 325 319 318 317 317 317 316 316 312 313 314 313 312 315 315 316 316
334 333 332 329 325 325 326 326 328 329 329 329 328 329 328 326 320 317 317 316 316 315 311 312 313 314 314 313 313 313 314 314
332 331 328 325 325 325 326 329 330 330 331 330 331 330 329 326 322 321 320 318 317 315 314 313 313 312 311 310 310 310 310 310
326 326 326 326 325 326 328 329 330 330 331 331 330 329 328 323 321 320 318 317 315 314 313 313 311 310 310 309 309 309 309 308
324 324 325 325 327 328 329 330 330 331 330 329 327 326 324 321 319 317 316 315 314 314 313 311 310 310 309 309 308 308 308 308
326 325 325 326 328 329 329 328 327 326 326 325 324 324 322 319 317 315 314 314 313 312 310 310 310 309 309 309 309 308 308 307
327 327 326 327 328 327 324 323 322 322 324 324 323 320 317 317 316 315 312 311 308 308 309 309 310 309 309 308 307 307 306 306
328 327 327 326 321 321 321 320 320 321 323 320 318 314 314 313 313 310 307 308 309 309 309 309 307 307 305 304 304 303 303 305
328 328 326 321 321 318 321 322 321 319 317 313 311 311 309 309 310 309 308 308 309 307 306 304 303 304 303 301 301 301 300 303
329 328 325 324 323 319 321 318 316 313 312 311 310 310 310 309 309 309 308 307 305 303 302 302 301 301 301 300 301 300 301 303
329 327 325 325 321 318 316 314 312 310 311 311 310 309 308 309 308 307 305 304 303 302 301 301 301 301 301 300 300 301 304 303
329 327 327 325 323 320 318 316 316 314 310 309 308 308 308 307 306 305 303 303 303 302 301 300 299 299 300 300 301 300 300 301
328 328 326 323 320 318 317 316 313 311 310 309 308 307 306 306 305 303 303 302 301 301 300 299 299 298 298 299 301 300 298 297
328 324 320 319 318 318 317 316 316 314 312 309 308 306 305 304 303 303 303 302 302 300 298 299 298 298 297 297 297 296 298 297
324 321 318 316 316 315 316 315 313 311 309 308 307 306 305 304 304 303 303 302 301 300 299 299 297 296 296 295 295 294 293 294
319 316 315 314 314 314 314 312 311 309 307 306 304 303 304 304 304 303 303 302 301 300 299 298 297 296 294 294 293 293 293 293
316 315 314 314 313 311 309 308 306 304 304 304 304 303 302 301 302 302 302 301 300 299 298 297 296 295 294 293 292 292 292 291
315 314 313 311 310 307 306 305 305 304 304 304 301 300 300 300 301 300 299 299 298 298 297 296 296 295 293 293 292 291 291 291
Wind_Speed
16 16 14 13 12 13 13 13 13 14 15 15 15 15 14 12 11 10 10 11 11 12 13 13 14 15 16 17 17 17 14 13
16 15 14 12 11 12 12 13 13 13 13 13 12 11 10 9 9 6 6 7 7 8 9 11 11 12 13 14 15 14 14 12
15 14 12 11 11 10 11 12 12 11 9 10 8 5 5 5 4 5 5 5 6 6 7 8 12 13 14 16 15 15 14 13
13 12 11 11 10 10 9 8 7 7 6 5 4 3 3 3 3 3 5 5 5 5 7 10 11 11 14 16 15 14 13 12
12 11 11 10 9 9 8 7 6 4 3 3 2 2 2 2 3 2 3 3 2 5 6 8 11 12 13 14 14 14 14 13
12 11 11 10 9 9 8 5 4 2 2 1 3 3 3 3 3 2 2 2 3 5 6 8 10 12 13 14 15 15 15 15
12 12 12 10 10 7 6 4 2 2 2 2 1 4 4 4 3 2 2 2 3 5 7 9 11 12 14 15 16 15 15 15
12 11 11 10 10 8 5 3 3 6 8 2 4 3 5 5 4 3 1 1 3 6 9 11 13 15 17 17 16 16 15 14
14 12 10 9 9 8 6 3 4 8 9 7 9 8 6 4 2 1 2 4 6 8 10 12 15 18 19 19 19 17 15 13
15 14 14 14 12 11 10 10 12 10 5 6 7 8 7 5 4 3 6 7 8 9 11 15 18 17 18 19 19 18 15 12
20 18 19 16 10 4 16 12 7 5 7 10 11 10 5 4 5 5 6 6 8 11 13 14 17 17 18 20 18 19 17 13
23 22 24 18 11 10 11 6 6 7 7 8 6 4 4 5 5 4 6 7 9 11 13 14 16 16 19 20 17 19 17 11
21 22 22 16 10 10 9 8 9 9 4 5 5 5 5 4 3 5 6 7 8 9 12 15 16 16 20 19 19 15 9 12
19 19 13 9 10 10 8 9 7 6 6 6 5 4 3 3 5 5 5 6 7 9 11 14 16 16 15 21 9 14 20 6
17 14 13 12 11 10 8 8 7 6 4 3 3 3 2 3 3 4 5 8 10 9 10 12 16 17 12 12 10 9 18 21
15 15 15 12 10 7 6 3 4 2 3 3 2 1 2 4 6 6 8 10 10 10 10 12 15 16 15 13 13 15 10 12
16 15 13 11 6 5 5 4 6 6 4 2 3 4 7 9 10 10 11 12 12 9 9 17 16 14 15 13 13 15 16 15
14 15 11 9 8 8 8 8 5 2 1 5 7 10 12 13 13 13 14 14 13 11 14 17 14 13 13 12 14 14 15 16
12 13 13 12 11 9 7 5 3 1 4 7 11 13 15 17 17 16 16 16 14 13 16 17 14 14 12 14 13 15 15 16
13 13 13 10 9 8 7 3 1 3 5 8 10 13 15 15 15 15 16 16 17 17 18 17 16 13 13 14 15 15 16 17
Wind_Direction
148 148 155 160 154 147 143 138 136 138 134 132 125 123 122 118 113 103 94 87 81 72 63 51 42 38 31 26 23 22 15 13
147 149 154 157 149 152 145 143 143 141 139 133 125 120 116 114 84 93 82 83 81 75 56 46 40 40 27 20 17 8 355 352
149 156 155 152 146 150 146 148 148 139 137 141 125 136 121 100 107 89 74 81 87 76 47 41 46 16 9 10 12 355 349 343
155 154 152 144 141 146 147 151 145 151 155 159 151 153 151 131 119 104 94 94 74 56 47 37 23 8 358 358 351 350 346 339
159 148 140 140 149 145 143 152 158 160 163 172 196 195 194 169 153 145 104 80 46 34 26 15 9 7 357 350 347 343 337 333
146 139 136 135 141 137 144 142 137 140 195 219 242 224 194 176 170 142 86 51 42 19 359 2 1 357 349 344 338 332 327 324
144 138 141 141 128 132 122 113 73 355 327 334 244 202 179 170 154 137 107 38 7 350 342 347 347 343 338 334 328 321 317 315
141 144 141 137 128 134 124 87 350 306 284 186 247 237 180 175 170 161 94 30 356 353 346 344 336 332 329 325 319 314 311 308
144 138 138 139 121 94 74 64 343 324 287 226 228 203 184 177 175 125 64 26 13 3 351 331 327 324 322 321 315 311 307 306
148 138 128 116 94 45 358 317 326 310 250 194 182 161 165 166 124 68 27 20 2 350 335 328 327 322 321 318 312 310 304 298
152 148 134 127 50 20 276 299 273 223 164 153 166 179 166 107 69 44 27 2 348 345 335 334 327 320 318 313 305 302 296 286
158 156 156 165 181 234 256 215 167 148 150 156 162 141 115 91 69 42 5 346 348 350 341 332 325 319 317 309 304 298 290 277
168 164 168 191 198 189 175 173 151 161 145 142 138 130 103 89 22 2 6 359 354 344 336 330 323 321 317 312 303 290 277 281
171 175 185 190 179 167 159 159 165 170 161 145 140 123 107 40 14 348 355 333 324 335 338 330 323 325 316 313 309 301 291 290
172 180 179 168 161 158 152 160 155 161 163 162 145 109 61 359 341 335 317 322 316 318 328 333 322 317 312 305 314 312 321 302
165 163 160 161 164 173 188 210 216 182 190 181 181 173 301 313 316 311 302 303 299 303 308 320 318 310 306 298 299 300 302 308
161 156 157 153 159 163 174 158 130 137 144 178 261 284 304 309 306 296 286 288 287 287 298 315 309 301 302 304 302 298 297 303
149 150 148 145 142 137 139 135 134 140 334 315 312 307 306 305 298 288 283 284 280 280 298 303 295 294 290 294 289 299 302 311
156 152 141 138 135 130 121 113 97 27 335 327 318 312 308 307 304 296 287 283 275 272 292 292 286 282 286 288 294 294 299 302
155 148 143 139 135 130 113 99 353 331 325 314 310 311 311 311 307 301 293 285 282 278 288 291 289 282 274 279 290 296 301 301